Wind_Speed
62 63 63 64 64 65 65 65 65 65 65 66 66 66 65 64 63 62 60 59 58 59 59 59 59 60 60 61 62 63 64 65 65 66 66 66 66 67 67 68 68 69 70 70 71 72 72 73 73 74 75 75 76 76 77 78 78 79 80 81 82 83 83 84 85 86 87 88 89 89 90 91 92 92 93 93 94 94 95 95 96 96 96 96 96 96
61 62 63 64 65 66 66 66 64 63 63 63 62 61 59 58 58 58 57 58 59 60 60 61 61 62 63 64 66 67 67 67 67 67 68 68 68 68 69 69 70 70 71 71 72 73 73 74 74 75 76 76 77 78 79 79 80 81 82 83 84 85 86 87 88 88 89 90 91 92 92 93 94 94 94 95 95 96 96 96 96 97 97 97 97 97
60 61 62 64 65 66 66 66 65 64 63 62 61 59 58 58 58 58 59 60 61 61 62 63 64 65 66 67 67 68 68 68 68 68 68 69 69 69 70 70 71 71 72 72 73 74 74 75 76 76 77 78 79 80 81 82 82 83 84 85 86 87 88 89 89 90 91 91 92 92 93 93 94 94 94 95 95 95 95 95 96 96 96 96 96 97
58 60 62 64 65 66 67 67 66 66 65 64 62 60 59 59 60 60 61 61 62 63 63 64 65 66 66 66 66 66 67 67 68 68 69 69 70 70 71 71 72 72 73 74 74 75 76 76 77 78 79 80 81 82 83 84 85 86 86 87 88 89 89 90 90 91 91 91 92 92 92 92 93 93 93 93 93 93 93 93 93 93 93 94 94 94
59 60 62 64 65 66 67 67 66 66 65 64 62 61 60 60 60 60 61 61 62 63 63 64 64 64 64 65 65 66 66 67 68 69 69 70 70 71 71 72 72 73 74 75 75 76 77 78 79 80 81 82 83 84 85 86 86 87 88 88 88 89 89 89 90 90 90 90 90 90 90 90 90 90 90 90 90 90 90 90 90 90 90 90 90 90
61 62 63 65 66 67 67 67 65 64 63 62 61 61 60 59 59 60 60 61 61 62 62 62 62 63 64 64 65 66 67 68 68 69 69 70 70 71 72 73 73 74 75 76 77 78 79 80 81 82 83 84 84 85 86 86 87 87 87 87 88 88 88 88 88 88 88 88 88 87 87 87 87 86 86 86 86 85 85 85 85 84 84 84 84 84
63 64 65 66 67 67 66 65 63 62 61 61 61 61 60 60 59 59 60 60 60 61 61 62 63 63 64 65 66 67 67 68 68 69 70 70 71 72 73 74 75 76 77 78 79 80 81 82 82 83 84 84 85 85 85 85 86 86 86 86 86 86 85 85 85 85 85 84 84 83 83 82 82 81 81 80 80 79 79 79 78 78 78 77 77 77
64 64 65 65 65 64 64 63 62 61 61 61 61 61 60 60 59 60 60 60 61 61 62 63 64 64 65 65 66 67 67 68 69 69 70 71 72 73 74 75 76 78 79 80 80 81 82 82 83 83 83 84 84 84 84 84 84 84 83 83 83 83 82 82 81 81 80 80 79 78 78 77 76 76 75 74 74 73 72 72 71 70 70 70 69 69
62 63 63 62 62 62 62 62 61 61 61 61 61 60 60 60 61 61 61 62 62 63 63 64 64 65 65 66 66 67 68 69 69 70 72 73 74 75 76 77 78 79 80 81 81 82 82 82 82 82 82 82 82 82 82 81 81 81 80 80 79 79 78 77 77 76 75 75 74 73 72 71 71 70 69 68 67 66 66 65 64 63 63 62 62 61
60 60 60 60 60 60 60 60 61 61 61 61 61 61 61 61 62 62 62 63 63 64 64 64 65 65 66 67 67 68 69 70 71 72 73 74 76 76 77 78 79 80 80 80 81 81 81 81 81 81 80 80 80 79 79 78 78 77 77 76 75 75 74 73 72 71 71 70 69 68 68 67 66 65 64 63 62 61 60 60 59 58 57 57 56 56
58 58 59 59 60 60 60 60 60 61 61 61 62 62 62 62 62 62 63 63 64 64 65 65 65 66 67 68 68 69 70 71 72 74 75 76 77 77 78 78 79 79 79 79 79 79 79 79 79 78 78 78 77 76 76 75 74 73 73 72 71 71 70 69 69 68 67 66 66 65 64 64 63 62 61 60 59 58 57 57 56 55 55 54 54 54
57 58 58 59 59 59 59 60 60 61 61 61 62 62 62 62 63 63 63 63 64 64 65 65 66 67 68 69 70 71 71 72 73 75 76 77 77 77 78 78 78 78 78 78 78 77 77 77 76 76 75 75 74 73 72 72 71 70 69 69 68 67 67 66 66 65 65 64 63 63 62 61 60 59 59 58 57 56 56 55 55 54 54 54 54 54
57 57 58 58 58 58 59 60 60 61 61 61 61 61 62 62 63 63 63 64 64 65 65 66 67 69 70 71 71 72 73 73 74 75 76 76 77 77 77 76 76 76 76 76 75 75 75 74 73 73 72 71 71 70 69 69 68 67 67 66 66 65 64 64 63 63 62 62 61 61 60 59 58 57 57 56 56 55 55 54 54 54 54 54 54 54
56 56 56 57 57 58 59 60 60 60 60 60 60 61 62 62 63 63 63 64 65 65 66 68 69 70 71 72 73 73 73 74 74 75 75 76 76 75 75 74 74 74 74 73 73 73 72 71 70 70 70 69 68 68 67 66 66 65 65 64 63 63 62 62 61 61 60 60 59 58 58 57 56 56 55 55 54 54 54 54 54 54 54 55 55 55
55 55 55 56 57 58 59 59 59 59 59 60 60 61 61 62 62 63 64 65 66 67 68 69 70 71 72 73 73 73 73 73 73 73 74 74 75 74 73 72 72 72 71 70 70 70 69 68 67 67 67 66 66 65 65 64 64 63 62 62 61 61 60 60 59 59 58 58 57 56 56 55 55 54 54 54 54 54 54 54 54 54 54 54 54 54
54 55 55 56 57 57 57 58 58 58 59 60 60 61 61 62 63 64 65 66 67 68 69 70 71 72 73 74 73 73 72 72 72 72 72 72 73 73 71 70 69 70 69 68 67 67 67 66 65 65 65 64 64 63 63 62 61 61 60 59 59 58 58 58 57 57 56 56 55 55 54 54 54 54 54 53 53 53 53 53 52 52 52 52 52 52
54 55 55 55 56 56 57 57 57 58 59 60 60 61 62 63 64 65 66 67 68 69 70 70 71 71 72 73 73 73 71 71 71 71 70 70 71 71 69 67 67 67 67 66 65 65 64 64 64 63 63 62 62 61 60 60 59 58 58 57 56 56 56 56 55 55 55 55 54 54 54 54 54 54 53 53 52 51 51 50 50 49 49 48 48 47
53 54 54 55 55 55 56 57 57 58 59 60 61 62 63 64 65 66 67 68 69 69 70 70 70 70 70 71 71 72 71 69 69 69 68 68 68 68 67 65 64 64 64 64 63 63 62 62 62 61 61 60 59 59 58 57 56 56 55 55 54 54 54 54 54 54 54 54 54 54 54 54 53 52 51 50 49 48 47 46 46 45 44 43 42 42
53 53 53 54 54 55 56 56 57 58 59 60 61 63 64 65 66 67 67 68 69 69 69 69 70 70 69 69 70 70 69 68 67 67 66 66 66 66 65 64 63 63 62 62 62 61 60 60 60 59 58 58 57 56 55 54 54 53 53 53 53 53 53 54 54 54 54 54 54 54 53 52 51 49 48 46 45 44 43 42 41 41 40 39 38 38
52 52 52 53 54 55 56 57 58 59 60 61 62 63 64 65 66 67 67 68 68 68 69 68 68 69 68 68 68 69 68 66 65 65 64 64 64 64 63 62 61 61 61 60 60 59 58 58 57 57 56 55 54 54 53 52 52 52 52 52 52 53 53 54 54 54 54 54 53 52 50 48 46 45 43 42 41 40 39 38 38 37 37 36 36 36
51 52 53 53 54 56 57 58 59 60 61 62 63 64 65 65 66 66 67 67 67 67 68 67 67 67 67 67 67 67 66 65 63 63 63 62 62 62 62 60 59 59 59 58 58 57 56 55 55 54 53 53 52 51 51 51 51 51 51 52 53 53 54 54 54 53 53 52 50 48 46 44 42 40 39 38 37 37 37 36 36 36 36 36 36 36
51 52 53 54 55 56 58 59 60 61 62 62 63 64 65 65 65 66 66 66 66 66 66 66 66 66 66 65 65 65 65 63 62 61 61 60 60 61 60 59 57 57 57 56 55 55 54 53 52 52 51 51 50 50 50 50 50 51 52 53 53 54 54 53 53 52 50 48 46 43 41 39 38 37 36 36 36 35 36 36 36 36 36 36 37 37
52 53 54 55 56 57 58 59 60 61 62 63 63 64 64 65 65 65 65 65 65 64 64 65 65 65 64 64 64 64 63 62 61 60 59 58 58 59 59 57 56 55 55 54 53 52 52 51 51 50 49 49 49 49 49 50 51 52 53 53 53 53 53 52 51 49 47 44 42 39 37 36 35 35 35 35 35 35 36 36 36 37 37 37 38 38
52 54 55 56 57 58 59 60 61 62 63 63 63 64 64 65 64 64 64 64 64 63 63 63 63 63 63 63 63 62 62 61 60 59 58 57 57 57 57 55 54 53 53 52 51 50 50 49 49 48 48 47 48 48 49 50 51 52 53 53 53 52 51 50 48 46 43 41 38 37 35 35 34 34 34 34 35 35 36 36 37 37 38 38 38 38
53 55 56 57 58 59 60 60 61 62 62 63 63 63 64 64 64 64 64 63 63 63 62 62 62 61 62 62 61 61 61 60 59 57 56 56 56 56 55 54 52 51 51 50 49 48 47 47 47 47 46 46 47 48 49 51 52 52 53 53 52 51 49 48 45 43 40 38 37 36 35 35 34 34 35 35 35 36 36 37 37 38 38 38 39 39
54 55 56 57 58 59 60 60 61 61 61 62 62 62 62 62 62 62 62 62 62 61 61 60 60 60 60 60 59 59 60 59 58 56 55 54 54 54 54 52 51 50 49 48 47 46 45 45 45 45 45 46 47 48 50 51 52 52 52 51 51 49 47 45 43 41 39 38 37 36 36 36 36 36 36 36 36 37 37 37 37 38 38 38 38 38
55 56 57 57 58 59 59 60 60 60 61 61 61 61 61 61 61 61 61 60 60 60 59 58 58 58 58 58 58 58 58 57 56 55 54 53 52 52 52 51 49 48 47 46 45 44 44 44 44 44 44 45 47 48 50 51 51 51 51 50 49 47 46 44 42 40 39 38 38 38 37 37 37 37 37 37 37 37 37 37 37 38 38 38 37 37
55 56 57 57 58 58 59 59 59 60 60 60 60 60 60 59 59 59 59 59 59 58 57 57 56 56 56 56 56 57 57 56 55 54 53 51 51 50 50 49 48 47 46 45 43 42 42 42 42 43 44 45 47 48 49 50 50 50 49 48 47 45 44 43 42 41 40 40 39 39 39 38 38 38 37 37 37 37 37 37 37 37 37 37 37 36
55 56 56 57 57 58 58 58 59 59 59 59 59 59 59 58 57 57 58 58 57 56 56 56 55 55 55 55 55 55 55 54 53 52 51 50 49 49 48 48 47 46 45 43 42 41 40 40 41 42 44 45 46 48 48 49 48 48 47 46 45 44 43 42 42 41 41 41 40 40 39 39 38 38 38 37 37 37 37 37 37 37 37 36 36 36
55 55 56 56 57 57 58 58 58 58 58 58 58 58 57 57 56 56 56 56 55 55 55 55 54 54 53 53 53 54 54 53 52 51 50 49 48 48 47 47 46 45 44 42 41 39 38 39 40 41 43 45 46 47 47 47 46 46 45 44 43 43 42 42 42 42 41 41 41 40 40 39 38 38 37 37 37 36 36 36 36 36 36 36 36 35
54 55 55 56 56 57 57 57 57 57 57 57 56 56 56 55 55 55 55 54 54 54 53 53 53 53 52 52 51 52 52 52 51 50 48 47 47 47 46 45 45 44 43 41 40 38 37 37 38 40 42 44 45 46 46 45 44 43 42 42 41 41 41 41 41 41 41 41 40 40 39 39 38 38 37 37 36 36 36 36 36 36 36 36 36 35
54 55 55 56 56 56 56 56 56 56 56 55 55 54 54 54 54 54 53 53 53 52 52 52 52 52 51 50 50 50 50 51 50 49 48 47 46 46 45 44 44 43 42 41 39 38 37 37 38 39 41 42 43 44 44 43 42 41 40 40 40 40 40 40 40 40 40 40 39 39 39 38 38 38 37 37 37 37 36 36 37 36 36 36 36 36
54 54 55 55 55 55 55 55 55 54 54 54 53 53 53 53 53 52 52 52 51 51 51 50 50 50 50 50 49 49 49 50 49 48 47 46 46 45 44 44 43 42 41 40 39 38 38 38 39 39 40 41 41 42 41 41 40 39 39 38 38 38 39 39 39 39 39 39 38 38 38 38 38 38 38 37 37 37 37 37 37 37 37 37 36 36
54 54 54 55 55 54 54 54 53 53 53 52 52 52 52 52 51 51 51 50 50 50 49 49 49 49 49 49 49 49 49 49 48 48 47 46 45 44 44 43 42 41 40 39 38 38 38 39 39 40 40 39 39 39 39 38 38 37 37 37 37 37 37 37 37 37 37 37 37 38 38 38 38 38 38 38 38 38 38 38 38 38 37 37 37 36
54 54 54 54 53 53 53 53 52 52 51 51 51 50 50 50 50 49 49 49 49 48 48 48 48 47 47 47 48 48 48 48 48 47 46 45 45 44 43 41 41 40 39 38 38 38 39 39 40 40 39 38 37 36 36 36 36 36 36 36 36 36 36 36 36 36 36 36 36 37 37 37 38 38 38 39 39 39 39 39 39 38 38 38 37 37
53 53 53 53 53 52 52 51 51 50 50 50 49 49 49 48 48 48 48 47 47 47 47 47 47 47 47 47 47 47 47 47 47 47 46 45 44 43 42 41 39 38 38 37 38 38 39 40 40 39 39 37 36 35 34 34 34 34 34 35 35 35 35 35 35 35 35 35 35 36 37 37 38 38 39 39 39 39 40 40 39 39 39 38 38 37
53 52 52 52 51 51 50 50 49 48 48 48 47 47 47 47 47 47 47 47 47 47 47 47 47 47 46 46 46 46 47 47 47 46 46 45 43 42 41 39 38 38 37 37 38 39 39 40 39 39 38 36 35 33 32 32 32 32 33 33 34 34 34 35 35 35 35 35 35 36 37 37 38 38 39 39 39 40 40 40 40 39 39 39 38 38
52 51 51 51 50 49 48 48 47 46 46 46 46 46 46 46 46 46 46 46 46 46 46 46 46 46 46 46 46 46 46 46 46 46 45 44 43 41 40 38 37 37 37 38 39 39 40 40 39 38 37 35 33 32 32 31 31 31 31 32 32 33 34 34 34 34 35 35 36 36 37 37 38 38 38 38 39 39 39 39 39 39 39 38 38 37
50 50 49 48 48 47 46 45 45 45 45 44 44 45 45 45 45 45 46 46 46 46 46 46 46 46 46 46 46 46 46 46 45 45 44 43 42 40 39 38 37 37 37 38 39 40 40 40 39 38 36 34 33 31 31 31 31 31 30 30 31 31 32 33 34 34 35 35 36 36 36 37 37 37 37 37 37 37 37 37 38 38 38 37 37 36
49 48 47 46 45 44 44 43 43 43 43 44 44 44 44 45 45 45 46 46 46 46 45 45 45 45 45 45 46 46 46 45 45 44 43 42 41 40 38 37 37 37 37 38 39 40 40 40 39 38 36 34 33 31 31 31 31 31 30 29 29 30 31 33 34 34 35 35 36 36 35 35 35 35 35 35 35 35 36 36 36 36 36 36 36 35
47 46 45 44 43 43 42 42 42 42 43 43 44 44 44 45 45 45 46 46 46 46 45 45 45 45 45 45 45 45 45 45 44 43 43 42 40 39 38 37 37 37 38 39 40 40 40 40 39 38 36 34 33 31 31 31 31 31 30 30 29 29 30 32 33 34 35 35 35 35 34 34 33 33 33 33 34 34 34 35 35 35 35 35 34 34
44 43 43 42 42 41 41 41 41 42 42 43 43 44 44 45 45 46 46 46 46 46 45 45 45 45 45 45 45 45 45 44 44 43 42 41 40 39 38 37 37 38 38 39 40 40 40 40 39 38 36 34 33 32 31 31 30 31 30 30 29 29 30 31 33 34 35 35 34 34 33 32 32 32 32 32 32 33 33 34 34 33 33 33 33 32
43 42 41 41 40 40 40 41 41 41 42 43 43 44 45 45 46 46 46 46 46 46 46 45 45 44 44 44 44 44 44 44 43 42 41 40 39 38 38 37 37 38 39 39 40 40 39 39 38 37 36 34 33 32 31 31 30 30 30 30 30 30 30 31 32 33 34 34 34 33 33 32 31 31 31 31 32 32 33 33 33 32 32 31 31 30
42 41 40 40 40 40 40 40 41 41 42 43 44 45 45 46 46 46 47 47 46 46 46 45 45 44 44 44 44 44 43 43 42 41 41 40 39 38 38 38 38 38 39 40 40 40 39 38 37 36 35 34 33 32 31 31 30 30 30 30 30 31 31 32 32 33 33 33 33 33 32 32 31 31 31 31 31 32 32 32 32 31 30 30 29 29
40 40 39 39 39 39 39 40 41 41 42 43 44 45 46 46 47 47 47 47 47 46 46 45 45 44 44 43 43 43 42 42 41 41 40 39 39 38 38 38 38 39 39 40 40 40 39 38 37 35 34 33 33 32 32 31 30 30 30 30 31 31 32 32 33 33 33 33 33 33 32 32 31 31 30 30 31 31 31 31 31 30 29 29 28 27
40 39 39 39 39 39 39 40 41 42 43 44 45 46 46 47 47 48 48 47 47 47 46 45 45 44 43 43 42 42 41 41 40 40 39 39 39 38 38 38 39 39 40 40 40 39 38 37 36 35 34 33 32 32 32 32 31 30 30 30 31 31 32 33 33 34 34 34 33 33 32 32 31 31 30 30 30 31 31 31 31 30 29 28 27 26
39 38 38 38 39 39 40 40 41 42 43 44 45 46 47 47 48 48 48 48 47 47 46 45 45 44 43 43 42 41 41 40 39 39 39 38 38 38 38 39 39 40 40 40 40 39 38 37 36 35 34 33 32 32 31 31 32 31 31 31 31 31 32 33 33 34 34 34 34 33 32 32 31 30 30 30 30 31 31 31 31 30 29 28 27 26
38 38 38 38 39 39 40 41 42 43 44 45 46 46 47 48 48 48 48 48 47 47 46 45 44 44 43 42 42 41 40 39 39 38 38 38 38 38 38 39 39 40 40 40 40 39 37 36 35 35 35 34 33 32 31 31 32 32 32 32 31 32 32 32 33 34 34 34 34 33 33 32 31 31 30 29 29 30 31 31 32 31 30 29 28 27
37 37 38 38 39 40 41 42 42 43 44 45 46 47 48 48 48 49 48 48 47 47 46 45 44 43 43 42 41 41 40 39 38 37 37 37 37 37 38 38 39 39 40 40 39 38 36 35 34 34 35 35 34 33 32 32 32 32 32 32 32 32 32 32 33 33 34 34 33 33 33 32 32 31 30 29 29 29 30 31 31 32 31 30 29 28
37 37 38 39 39 40 41 42 43 44 45 46 46 47 48 48 49 49 48 48 47 46 45 45 44 43 42 42 41 40 39 38 38 37 37 36 37 37 37 38 39 39 39 39 38 37 35 34 33 32 33 34 35 34 33 33 32 32 32 32 32 32 32 32 32 33 33 33 33 33 32 32 32 31 31 30 29 28 29 30 31 32 32 31 30 29
37 38 38 39 40 41 42 43 43 44 45 46 47 47 48 48 49 49 48 48 47 46 45 44 43 43 42 41 40 40 39 38 37 37 36 36 36 37 37 38 39 39 39 39 37 36 34 33 31 30 31 32 34 35 34 34 33 33 32 32 32 32 32 33 33 33 33 33 33 32 32 32 32 31 31 30 29 28 28 29 30 31 32 32 31 30
Wind_Direction
282 283 284 284 285 286 286 288 290 292 294 295 294 293 291 290 289 288 287 286 286 286 286 285 284 284 284 284 284 285 286 287 287 288 288 288 288 289 289 289 289 289 289 289 289 289 289 289 289 288 288 288 287 287 287 286 286 286 285 285 285 285 285 285 284 284 284 284 284 283 283 283 282 282 281 281 280 280 279 279 278 278 277 276 276 275
282 282 283 284 284 285 286 287 289 291 294 296 295 294 292 291 291 290 289 288 288 287 286 285 284 284 284 285 285 286 287 288 288 289 289 290 290 290 290 290 291 291 290 290 290 290 290 289 289 289 288 288 288 287 287 286 286 286 286 285 285 285 285 285 285 285 284 284 284 283 283 283 282 282 281 281 280 280 279 279 278 277 277 276 275 275
282 282 283 283 283 284 285 286 288 290 292 294 295 294 293 292 291 290 290 289 287 286 286 285 285 285 285 285 286 287 288 288 289 290 290 291 291 291 292 292 292 291 291 291 290 290 290 289 289 289 288 288 288 287 287 287 286 286 286 286 286 286 286 285 285 285 285 284 284 284 283 283 283 282 281 281 280 280 279 278 278 277 276 276 275 274
281 281 281 282 282 283 285 286 288 289 291 292 293 292 292 292 291 290 289 288 287 287 286 286 285 285 286 286 287 288 289 289 290 291 291 292 292 292 292 292 292 292 291 291 290 290 290 289 289 289 288 288 288 287 287 287 287 287 287 286 286 286 286 286 286 285 285 285 284 284 284 283 283 282 282 281 280 280 279 279 278 277 277 276 275 275
279 279 279 281 282 283 285 287 288 289 290 291 291 291 292 291 290 289 289 288 287 287 286 286 286 287 287 288 289 290 290 291 292 292 293 293 293 293 293 292 292 291 291 291 290 290 289 289 289 289 288 288 288 288 288 288 288 287 287 287 287 287 287 287 286 286 286 285 285 284 284 283 283 282 282 281 281 280 279 279 278 278 277 276 276 275
278 278 279 280 282 284 286 288 288 289 290 290 291 291 291 290 289 288 288 287 287 287 287 288 289 289 290 291 291 292 292 293 293 293 293 293 293 293 292 292 292 291 291 290 290 290 289 289 289 289 289 289 289 288 288 288 288 288 288 288 288 288 288 287 287 287 286 286 285 285 284 284 283 283 282 282 281 281 280 279 279 278 278 277 276 276
278 278 279 281 283 285 286 287 288 289 289 290 290 291 290 289 288 288 287 288 288 289 290 291 291 292 292 293 293 293 293 293 294 293 293 293 293 292 292 292 291 291 291 290 290 290 290 290 290 290 290 289 289 289 289 289 289 289 289 289 289 288 288 288 287 287 287 286 286 285 285 284 284 283 283 282 282 281 281 280 279 279 278 278 277 276
279 280 281 283 284 285 286 287 288 288 289 290 290 290 290 289 288 288 289 289 290 292 292 293 293 294 294 294 294 294 294 294 293 293 293 293 292 292 292 292 291 291 291 291 291 291 291 291 290 290 290 290 290 290 290 290 290 290 290 289 289 289 288 288 288 287 287 286 286 286 285 284 284 284 283 283 282 282 281 280 280 279 279 278 277 277
281 282 283 284 285 286 287 287 288 288 290 290 290 290 289 289 290 290 291 292 293 293 294 294 294 294 294 294 294 294 293 293 293 293 293 293 292 292 292 292 292 292 292 292 292 291 291 291 291 291 291 291 291 291 291 291 291 290 290 290 289 289 289 288 288 287 287 286 286 285 285 285 284 284 283 283 282 282 281 281 280 279 279 278 278 277
283 284 284 285 285 286 287 288 289 289 290 291 290 290 290 291 291 292 293 293 294 294 295 295 294 294 294 293 293 293 293 293 293 293 293 293 293 293 293 293 293 293 293 293 293 292 292 292 292 292 292 292 292 292 291 291 291 291 290 290 290 289 289 288 288 287 287 286 286 285 285 284 284 283 283 283 282 282 281 281 280 280 279 279 278 278
284 284 285 285 286 286 287 289 290 291 291 291 290 290 291 292 293 294 294 294 294 295 295 294 294 294 293 293 293 293 293 294 294 294 294 293 293 293 293 293 293 294 294 293 293 293 293 293 293 293 293 293 292 292 292 292 291 291 290 290 289 289 288 288 287 287 286 286 285 285 284 284 284 283 283 282 282 281 281 281 280 280 279 279 278 278
284 284 285 285 287 288 289 290 290 291 291 291 291 291 292 292 293 294 294 294 294 294 294 294 294 294 293 293 293 294 294 294 294 294 294 294 294 294 294 294 294 294 294 294 294 294 294 294 294 294 293 293 293 292 292 292 291 291 290 290 289 289 288 288 287 287 286 286 285 285 284 284 283 283 283 282 282 281 281 281 280 280 279 279 278 277
284 284 286 287 288 289 290 290 290 290 290 291 292 293 293 294 294 294 294 294 294 294 294 294 294 294 293 293 294 294 295 295 295 295 295 295 295 295 295 295 295 295 295 295 295 295 295 295 294 294 294 293 293 293 292 292 291 291 290 290 289 289 288 288 287 286 286 286 285 285 284 284 283 283 283 282 282 281 281 281 280 279 279 278 277 276
285 286 288 289 289 289 289 289 290 290 291 292 293 293 294 294 294 294 294 294 294 294 294 294 294 294 294 294 295 295 296 296 296 296 296 296 296 296 296 296 296 296 296 296 296 295 295 295 295 294 294 294 293 293 292 292 291 291 290 290 289 289 288 288 287 287 286 286 285 285 284 284 284 283 283 283 282 282 281 281 280 279 278 277 276 275
287 288 288 288 288 288 289 290 291 292 293 293 293 294 294 294 294 294 294 294 294 294 294 294 295 295 295 295 296 296 297 297 297 297 296 296 296 296 297 297 297 296 296 296 296 296 296 295 295 295 294 294 293 293 293 292 292 291 291 290 290 289 289 288 288 287 287 286 286 286 286 285 285 285 284 284 283 283 282 281 280 279 278 277 276 275
287 287 287 287 288 289 290 291 292 293 293 294 294 294 294 294 294 294 295 295 295 295 295 295 296 296 296 296 297 297 297 297 297 297 297 297 297 297 297 297 297 297 297 297 296 296 296 296 295 295 295 294 294 293 293 293 292 292 291 291 290 290 289 289 289 288 288 288 288 288 287 287 287 286 286 285 285 284 283 281 280 279 278 277 276 275
286 286 287 289 290 291 292 293 293 294 294 294 294 294 295 295 295 295 295 295 296 296 296 296 297 297 297 297 297 298 298 298 298 298 298 298 298 298 298 298 298 297 297 297 297 297 297 296 296 296 295 295 294 294 294 293 293 293 292 292 291 291 291 290 290 290 290 290 290 289 289 289 288 288 287 286 285 284 283 281 280 279 278 278 277 277
287 289 290 292 293 293 294 294 294 294 294 294 295 295 295 295 296 296 296 296 297 297 297 297 298 297 298 298 298 298 298 298 298 298 298 298 298 298 298 298 298 298 298 298 297 297 297 297 296 296 296 295 295 295 294 294 294 294 293 293 292 292 292 292 291 291 291 291 291 291 290 290 290 289 288 286 285 283 282 281 280 279 279 278 278 278
290 292 293 293 294 294 294 294 294 294 295 295 295 296 296 296 296 297 297 297 298 298 298 298 298 298 298 298 298 298 298 299 299 299 299 298 298 298 298 299 299 299 298 298 298 298 298 298 297 297 296 296 296 295 295 295 294 294 294 293 293 293 292 292 292 292 292 292 292 292 291 291 290 288 287 285 283 282 281 280 279 279 278 278 278 278
293 293 293 294 294 294 294 294 295 295 295 296 296 296 297 297 297 298 298 298 299 299 299 299 299 298 299 299 299 298 299 299 299 299 299 299 299 299 299 299 300 299 299 299 299 299 298 298 297 297 297 296 296 296 295 295 295 294 294 294 293 293 293 293 293 293 293 293 293 293 292 291 289 287 285 284 282 281 280 279 278 278 278 278 277 277
294 294 294 294 294 294 295 295 296 296 296 297 297 298 298 298 299 299 299 299 299 299 299 299 299 299 299 299 299 299 299 299 300 300 300 300 300 300 300 300 300 300 300 299 299 299 299 298 297 297 296 296 296 296 295 295 295 295 294 294 294 294 294 295 295 295 295 294 294 293 292 290 288 286 284 282 281 280 279 278 278 277 277 277 277 277
294 295 295 295 295 295 296 296 297 297 298 298 298 299 299 299 299 299 299 299 299 299 299 299 299 299 300 300 300 300 300 300 301 301 301 301 301 300 300 301 301 300 300 299 299 299 298 298 297 297 296 296 296 296 296 295 295 295 295 296 296 296 296 296 296 296 296 296 295 293 291 289 286 285 283 282 281 280 279 278 278 278 278 278 278 277
295 295 295 296 296 297 297 298 298 299 299 299 300 300 300 300 300 300 300 300 300 300 300 300 300 300 301 301 301 301 301 301 301 302 302 302 301 301 301 301 301 301 300 299 299 299 298 297 297 296 296 296 296 296 296 296 297 297 297 297 297 297 298 298 298 297 297 296 294 292 290 288 286 285 283 282 281 280 279 279 279 279 279 278 278 278
296 296 297 297 298 298 299 299 299 300 300 300 300 300 300 300 300 300 300 301 301 301 301 301 302 302 302 302 302 302 302 302 302 302 302 302 302 301 301 301 301 300 300 299 299 298 298 297 297 296 296 296 297 297 298 298 298 299 299 299 299 299 299 299 299 299 298 296 294 292 290 288 287 286 285 283 282 282 281 281 280 280 280 280 279 279
297 297 298 299 299 299 300 300 300 301 301 301 301 301 301 301 301 301 301 302 302 302 303 303 303 303 303 303 303 302 302 302 302 303 303 302 302 301 301 301 301 300 299 299 299 298 298 297 297 297 297 297 298 298 299 300 300 301 301 301 301 301 300 300 300 299 298 296 294 293 292 290 289 288 287 286 285 285 284 283 283 282 282 281 281 280
298 299 299 300 300 300 301 301 301 301 301 301 301 301 301 302 302 302 303 303 303 303 304 304 304 303 303 303 303 303 302 303 303 303 303 303 302 302 301 301 301 300 299 299 299 299 298 297 297 297 298 298 299 300 301 302 302 302 302 302 302 301 301 301 301 300 298 297 296 295 294 293 292 291 290 289 289 288 287 286 285 284 283 282 282 281
299 300 300 300 301 301 301 301 301 301 302 302 302 302 303 303 303 304 304 304 304 304 304 304 304 304 304 303 303 303 303 303 303 304 304 304 303 302 301 301 301 300 300 299 299 299 298 298 298 298 299 300 301 302 303 303 303 303 303 302 302 302 301 301 301 300 299 298 298 297 297 296 295 294 293 292 291 291 290 288 287 286 285 284 283 282
300 300 301 301 301 301 302 302 302 302 303 303 303 304 304 304 305 305 305 305 305 305 304 304 304 304 304 304 303 303 303 304 304 304 305 305 304 303 302 302 301 301 300 300 299 299 299 298 298 299 300 301 303 303 304 303 303 303 302 302 301 301 301 301 300 300 299 299 299 298 298 297 297 296 295 294 293 292 291 290 288 287 285 284 283 282
301 301 302 302 302 302 303 303 303 304 304 304 305 305 305 305 306 305 305 305 305 305 305 304 304 304 304 304 304 304 304 304 305 305 306 305 304 303 303 302 302 301 301 300 299 299 299 299 299 300 301 303 304 304 304 303 302 302 301 301 300 300 300 299 299 299 299 299 299 299 299 298 297 297 296 295 294 293 292 290 289 287 286 285 284 283
302 302 303 303 303 304 304 305 305 305 305 306 306 306 306 306 306 306 305 305 305 305 305 305 305 305 305 305 305 305 305 305 305 306 306 305 305 304 303 303 302 301 301 300 299 299 298 299 300 301 303 303 304 304 303 302 301 300 300 299 299 298 298 298 298 299 299 299 299 299 299 298 298 297 297 296 295 294 292 291 289 288 287 285 284 283
303 304 304 305 305 305 306 306 306 306 306 307 307 307 306 306 306 306 306 306 306 306 306 306 306 306 307 307 307 306 306 306 306 307 306 306 305 304 304 303 302 302 301 300 300 299 299 299 300 302 303 304 304 303 302 301 300 299 298 297 297 297 297 297 298 298 299 299 299 299 299 299 298 298 297 297 296 294 293 292 290 289 287 286 285 284
305 305 306 306 306 307 307 307 307 307 307 307 307 307 307 307 306 306 306 306 307 307 307 307 308 308 308 308 308 307 307 306 307 307 307 306 305 305 304 303 303 302 302 301 301 300 300 301 301 302 303 303 303 303 302 300 299 298 297 296 296 295 296 296 297 298 298 299 299 299 299 299 299 298 298 297 296 295 294 292 291 289 288 287 285 284
307 307 307 307 307 308 308 308 308 308 307 307 307 307 307 307 307 307 307 308 308 308 308 309 309 309 309 309 308 308 307 307 307 307 307 307 306 305 305 304 303 302 302 302 301 301 302 302 303 303 303 303 303 302 301 299 298 297 296 295 295 295 295 296 297 297 298 298 299 299 299 299 299 298 298 297 296 295 294 293 291 290 288 287 286 285
308 308 308 308 308 308 308 308 308 308 308 308 308 308 308 308 308 309 309 309 310 310 310 310 310 310 310 310 309 308 308 308 308 308 307 307 306 305 305 304 303 302 302 301 302 302 303 303 304 304 304 303 302 301 300 299 297 296 295 295 295 295 295 296 297 297 298 298 298 298 298 298 298 298 297 297 296 295 294 292 291 290 289 287 286 285
308 308 308 308 309 309 308 308 308 309 309 309 309 309 309 309 310 310 310 311 311 311 311 311 311 311 310 310 309 309 309 308 308 308 308 307 306 306 305 304 303 302 301 302 302 303 304 304 305 305 305 304 302 301 300 298 297 296 295 295 295 296 296 297 297 297 297 298 298 298 298 297 297 297 296 296 295 294 293 292 291 290 289 288 287 286
309 309 309 309 309 309 309 309 309 309 310 310 310 310 311 311 311 312 312 312 312 312 312 312 312 311 311 310 310 309 309 309 309 308 308 307 306 306 304 303 303 302 302 302 303 304 305 306 306 306 306 305 303 301 300 298 297 296 296 296 297 297 297 298 298 298 298 298 298 298 298 297 297 296 296 295 294 293 292 291 290 290 289 288 287 286
310 310 309 310 310 310 310 310 310 310 311 311 311 312 312 312 313 313 313 313 313 313 313 312 312 312 311 311 310 310 309 309 309 309 308 307 306 305 305 304 303 303 303 304 305 306 307 307 307 307 307 306 304 303 301 299 297 297 297 297 298 298 298 298 299 299 299 300 300 299 299 298 297 297 296 295 294 293 292 291 290 289 289 287 287 286
310 310 310 310 310 310 310 311 311 311 312 312 313 313 314 314 314 314 314 314 314 313 313 313 312 312 311 311 311 310 310 310 309 309 308 307 307 306 305 304 304 304 305 306 307 308 309 309 309 309 308 307 305 304 302 300 299 298 298 298 299 299 299 300 300 301 301 302 302 302 301 300 299 298 296 295 294 293 292 291 290 289 288 288 287 286
310 310 310 310 310 311 311 312 312 313 313 314 315 315 315 315 315 315 315 315 314 314 313 313 313 312 312 311 311 311 310 310 310 309 309 308 307 306 305 305 305 306 307 308 309 310 310 311 311 311 310 308 307 305 303 302 300 299 299 299 300 300 301 301 302 303 304 305 305 304 303 302 301 299 298 297 296 294 293 292 291 289 289 288 287 286
310 310 310 310 311 311 312 313 314 314 315 316 316 317 317 317 317 316 316 315 315 314 314 313 313 312 312 311 311 311 311 311 310 310 309 308 307 306 306 306 306 307 308 309 310 311 312 313 313 312 311 309 308 306 305 303 302 301 300 301 301 302 302 303 304 305 307 308 308 307 306 305 303 302 301 299 298 296 294 293 291 290 289 288 288 287
310 310 310 311 311 312 313 314 315 316 317 317 318 318 318 318 317 317 316 316 315 315 314 313 313 312 312 311 311 311 311 311 310 310 309 308 307 306 306 306 307 308 310 311 312 313 314 314 314 313 312 310 308 307 305 304 303 303 302 302 303 303 304 305 306 308 309 310 310 310 309 307 306 305 303 302 300 298 296 294 293 291 290 289 288 287
310 310 311 311 312 313 314 315 316 317 318 319 319 319 319 319 318 318 317 316 316 315 314 314 313 312 312 311 311 311 311 311 310 310 309 308 307 307 306 307 308 309 311 312 313 314 315 315 315 314 313 311 309 307 306 305 304 304 304 304 304 304 305 306 308 310 312 313 313 312 311 309 308 307 305 304 302 300 298 296 295 293 292 290 289 288
310 310 311 311 313 314 315 316 317 318 319 319 320 320 320 320 319 319 318 317 316 315 315 314 313 312 312 311 311 311 311 311 310 310 309 308 307 307 307 307 309 310 311 312 313 314 315 315 315 314 313 311 309 307 306 305 305 304 304 304 304 304 305 307 309 311 313 314 314 314 312 311 310 309 308 306 304 303 301 299 298 296 294 293 291 289
309 310 311 312 313 314 316 317 318 319 320 320 320 321 321 321 320 320 319 318 317 316 315 314 313 313 312 311 311 311 311 311 310 310 309 308 307 307 307 308 309 310 311 313 314 315 315 315 315 314 312 310 309 307 306 305 305 305 305 304 304 305 306 308 310 312 314 315 316 315 314 313 312 311 310 309 307 306 304 303 301 300 298 296 293 291
309 310 311 312 313 315 316 317 318 319 320 321 321 321 322 321 321 320 319 318 317 316 315 314 313 313 312 312 311 311 311 311 310 309 308 308 307 307 307 308 309 310 312 313 314 315 316 316 315 314 312 310 309 307 307 306 305 305 305 304 304 305 307 308 310 312 314 316 316 316 315 314 313 313 312 311 310 308 307 306 305 304 302 300 297 294
308 309 310 312 313 315 316 317 319 320 320 321 321 322 322 322 321 321 320 318 317 316 315 314 313 313 312 312 311 311 311 311 310 309 308 307 307 307 307 308 309 311 312 313 314 315 316 316 315 314 312 310 308 307 307 306 306 305 304 304 304 305 306 308 310 312 314 316 316 316 315 314 314 314 314 313 312 310 309 308 308 307 306 304 301 298
308 309 310 312 313 315 316 317 319 320 321 321 322 322 322 322 321 321 320 319 318 316 315 314 314 313 312 312 311 311 311 310 310 309 308 307 307 306 307 308 309 311 312 313 315 315 316 316 315 314 312 310 308 307 307 306 306 305 305 304 304 305 306 307 309 311 314 315 316 316 315 314 314 314 314 314 313 312 310 310 309 309 308 307 305 302
307 308 310 312 313 315 316 318 319 320 320 321 322 322 322 322 321 321 320 319 318 316 315 314 314 313 312 312 312 311 311 310 309 308 307 307 306 306 306 307 309 310 312 313 314 315 316 316 315 314 312 310 308 307 307 306 306 305 305 304 304 304 305 307 309 311 313 314 315 315 315 314 313 314 314 314 314 313 312 311 310 310 310 309 307 305
306 308 310 312 314 315 317 318 319 320 320 321 321 322 322 322 321 321 320 319 318 316 315 314 314 313 312 312 311 311 311 310 309 308 307 306 306 306 306 307 309 310 312 313 314 314 315 315 315 314 312 310 308 307 306 306 305 304 304 304 303 304 305 306 308 309 311 313 314 314 314 313 313 313 314 314 314 314 313 312 311 310 309 309 308 306
306 308 310 312 314 315 317 318 319 320 320 321 321 321 321 321 321 321 320 319 318 317 315 314 314 313 313 312 311 311 310 310 308 307 306 305 305 305 306 307 309 310 311 312 313 313 314 314 314 313 312 310 308 307 307 305 304 303 303 303 303 303 304 305 307 309 310 312 313 313 313 312 312 312 313 314 315 315 314 312 311 310 309 308 307 306
306 308 310 312 314 315 316 318 319 319 320 321 321 321 321 321 321 320 320 319 318 317 316 315 314 313 312 312 311 311 310 309 308 307 306 305 305 305 306 307 309 310 311 311 312 312 313 312 312 311 310 309 308 307 307 306 304 303 302 302 303 303 304 306 307 308 310 311 312 312 312 312 312 312 313 313 314 315 314 313 311 309 307 306 306 305
Height
5671 5670 5670 5669 5667 5666 5664 5664 5663 5662 5661 5660 5659 5657 5656 5655 5653 5652 5651 5650 5649 5648 5647 5646 5645 5644 5643 5642 5640 5640 5638 5637 5636 5636 5635 5634 5633 5632 5631 5630 5628 5627 5625 5624 5623 5621 5620 5618 5617 5615 5614 5613 5611 5610 5608 5606 5605 5603 5601 5600 5598 5596 5595 5594 5592 5590 5589 5587 5585 5583 5582 5580 5579 5578 5577 5575 5574 5573 5571 5570 5569 5568 5567 5566 5565 5565
5668 5666 5665 5664 5663 5662 5660 5659 5659 5659 5658 5656 5655 5654 5652 5650 5649 5648 5648 5646 5645 5644 5642 5641 5640 5639 5637 5636 5635 5634 5632 5631 5631 5630 5629 5628 5627 5626 5625 5623 5622 5620 5619 5617 5616 5614 5613 5611 5610 5608 5607 5605 5604 5602 5600 5599 5597 5595 5594 5592 5590 5589 5587 5585 5584 5582 5580 5579 5577 5575 5573 5571 5570 5568 5567 5565 5564 5563 5561 5560 5559 5557 5556 5555 5555 5554
5664 5662 5661 5660 5659 5658 5656 5655 5655 5655 5654 5652 5651 5650 5648 5647 5645 5644 5643 5642 5640 5639 5638 5636 5635 5633 5632 5630 5629 5628 5627 5626 5625 5624 5623 5622 5620 5619 5618 5616 5615 5614 5612 5610 5609 5607 5606 5604 5603 5601 5600 5598 5596 5595 5593 5591 5589 5588 5586 5584 5582 5580 5579 5577 5575 5573 5571 5570 5568 5566 5564 5562 5560 5559 5557 5555 5554 5553 5551 5550 5548 5547 5546 5545 5544 5543
5660 5658 5657 5656 5655 5654 5653 5652 5651 5650 5650 5648 5647 5645 5644 5642 5641 5640 5638 5637 5635 5634 5633 5631 5630 5628 5626 5625 5624 5623 5621 5620 5619 5618 5617 5615 5614 5613 5611 5610 5608 5607 5605 5604 5602 5600 5599 5597 5596 5594 5592 5590 5589 5587 5585 5583 5581 5579 5577 5575 5574 5572 5570 5568 5566 5564 5562 5560 5558 5556 5555 5553 5551 5549 5547 5545 5544 5542 5541 5540 5538 5537 5536 5535 5534 5533
5655 5654 5653 5652 5651 5650 5649 5648 5647 5646 5645 5644 5642 5641 5639 5638 5636 5635 5634 5632 5631 5629 5627 5626 5625 5623 5621 5620 5618 5617 5616 5614 5613 5611 5610 5609 5607 5606 5604 5603 5601 5600 5598 5597 5595 5594 5592 5590 5589 5587 5585 5583 5581 5579 5577 5575 5573 5571 5569 5567 5565 5563 5561 5559 5557 5555 5553 5551 5549 5547 5545 5543 5541 5540 5538 5536 5534 5533 5531 5530 5528 5527 5526 5525 5524 5523
5650 5650 5649 5648 5647 5645 5645 5644 5643 5641 5640 5639 5638 5636 5635 5634 5632 5631 5629 5628 5626 5624 5622 5621 5619 5617 5616 5614 5612 5611 5610 5608 5607 5605 5604 5602 5601 5599 5598 5596 5595 5593 5591 5590 5588 5586 5585 5583 5581 5579 5577 5575 5573 5571 5569 5566 5565 5562 5560 5558 5556 5554 5552 5550 5548 5546 5544 5542 5540 5538 5536 5534 5532 5530 5528 5527 5525 5523 5522 5520 5519 5518 5517 5515 5515 5514
5646 5645 5645 5644 5643 5642 5640 5639 5638 5637 5636 5634 5633 5632 5630 5629 5628 5626 5625 5623 5621 5619 5617 5615 5614 5612 5610 5608 5606 5605 5604 5602 5601 5599 5598 5596 5594 5593 5591 5590 5588 5586 5584 5582 5581 5579 5577 5575 5573 5571 5569 5567 5565 5563 5560 5558 5556 5554 5552 5550 5548 5546 5544 5541 5540 5537 5535 5533 5531 5529 5527 5525 5523 5521 5520 5518 5516 5515 5513 5512 5510 5509 5508 5507 5506 5505
5641 5641 5641 5640 5639 5637 5636 5635 5633 5632 5631 5630 5629 5627 5625 5624 5623 5621 5620 5617 5615 5614 5611 5610 5608 5606 5604 5602 5601 5599 5598 5597 5595 5594 5592 5590 5588 5586 5585 5583 5581 5579 5577 5575 5573 5571 5569 5567 5565 5563 5561 5559 5557 5555 5552 5550 5548 5546 5544 5542 5540 5537 5535 5533 5531 5529 5527 5525 5523 5521 5519 5517 5515 5514 5512 5510 5509 5507 5506 5504 5503 5502 5500 5500 5499 5498
5638 5637 5636 5636 5635 5633 5631 5630 5629 5628 5627 5625 5624 5622 5621 5619 5618 5616 5614 5612 5610 5608 5606 5604 5602 5600 5599 5597 5595 5594 5593 5591 5590 5588 5586 5584 5582 5580 5578 5576 5574 5572 5570 5567 5565 5563 5561 5559 5557 5555 5553 5551 5549 5546 5545 5542 5540 5538 5536 5534 5532 5530 5528 5525 5524 5522 5520 5518 5516 5514 5512 5510 5509 5507 5505 5504 5502 5500 5499 5498 5496 5495 5494 5493 5492 5491
5634 5633 5631 5630 5630 5629 5627 5625 5624 5623 5622 5620 5619 5617 5616 5614 5612 5610 5608 5606 5604 5602 5601 5599 5597 5595 5593 5592 5590 5589 5588 5586 5584 5582 5580 5577 5575 5573 5571 5569 5567 5564 5562 5560 5557 5555 5553 5551 5549 5547 5545 5543 5541 5539 5537 5535 5533 5530 5528 5526 5524 5522 5520 5518 5516 5515 5513 5511 5509 5507 5506 5504 5502 5501 5499 5498 5496 5495 5493 5492 5490 5489 5488 5487 5486 5485
5630 5629 5628 5626 5625 5624 5623 5621 5619 5618 5617 5615 5614 5612 5610 5609 5607 5605 5602 5600 5599 5597 5596 5594 5592 5590 5588 5586 5585 5584 5583 5581 5578 5576 5573 5570 5568 5566 5564 5562 5560 5557 5555 5552 5550 5547 5545 5543 5541 5539 5537 5535 5533 5531 5529 5527 5525 5523 5521 5519 5517 5515 5514 5512 5510 5508 5506 5505 5503 5501 5500 5498 5496 5495 5494 5492 5490 5489 5488 5486 5485 5484 5483 5482 5480 5480
5626 5625 5624 5622 5621 5620 5618 5617 5615 5614 5612 5610 5609 5606 5605 5604 5602 5600 5597 5595 5594 5593 5591 5589 5587 5585 5583 5580 5579 5578 5577 5575 5573 5569 5566 5563 5561 5559 5558 5555 5552 5550 5547 5545 5542 5540 5538 5536 5533 5531 5529 5527 5525 5524 5522 5520 5518 5516 5515 5513 5511 5509 5507 5505 5504 5502 5500 5499 5497 5495 5494 5492 5491 5489 5488 5486 5485 5484 5482 5481 5480 5478 5477 5476 5475 5474
5622 5621 5619 5618 5616 5615 5614 5612 5611 5609 5607 5606 5604 5601 5599 5598 5597 5595 5593 5591 5589 5588 5586 5583 5581 5579 5576 5575 5574 5573 5571 5569 5566 5563 5559 5556 5554 5552 5551 5548 5545 5542 5540 5537 5535 5532 5530 5529 5526 5524 5522 5520 5519 5517 5515 5513 5512 5510 5508 5506 5505 5503 5501 5499 5498 5496 5494 5493 5491 5490 5488 5487 5485 5484 5482 5481 5480 5478 5477 5475 5474 5473 5471 5470 5470 5468
5618 5616 5615 5613 5612 5611 5610 5608 5606 5604 5602 5600 5599 5597 5595 5593 5591 5590 5588 5586 5584 5582 5580 5578 5575 5573 5570 5569 5568 5567 5565 5563 5560 5556 5552 5549 5547 5546 5545 5542 5538 5535 5533 5531 5528 5525 5524 5522 5520 5517 5515 5513 5512 5510 5508 5507 5505 5503 5502 5500 5498 5496 5495 5493 5491 5490 5488 5487 5485 5484 5482 5481 5480 5478 5477 5475 5474 5473 5471 5470 5469 5467 5466 5465 5464 5462
5613 5612 5610 5609 5608 5606 5605 5603 5601 5599 5597 5595 5594 5592 5590 5588 5586 5585 5583 5580 5579 5577 5575 5573 5570 5567 5564 5562 5562 5561 5559 5557 5554 5550 5546 5542 5540 5539 5539 5536 5532 5529 5526 5525 5522 5520 5517 5515 5514 5511 5509 5507 5505 5503 5502 5500 5499 5497 5495 5494 5492 5490 5489 5487 5485 5484 5483 5481 5480 5478 5477 5475 5474 5473 5471 5470 5469 5467 5465 5464 5463 5461 5460 5459 5457 5456
5609 5608 5606 5605 5603 5601 5600 5598 5596 5594 5592 5591 5589 5587 5585 5583 5581 5580 5578 5575 5573 5571 5569 5567 5564 5561 5558 5556 5555 5555 5554 5551 5547 5544 5541 5537 5534 5532 5532 5530 5527 5523 5520 5518 5516 5514 5511 5509 5507 5505 5503 5501 5499 5497 5495 5494 5492 5491 5489 5487 5486 5484 5483 5481 5480 5478 5477 5475 5474 5473 5471 5470 5468 5467 5465 5464 5463 5461 5459 5458 5456 5455 5454 5453 5451 5450
5605 5603 5602 5600 5598 5597 5595 5594 5592 5590 5588 5586 5584 5582 5580 5578 5576 5574 5572 5570 5568 5565 5563 5560 5558 5555 5552 5549 5548 5548 5548 5546 5542 5538 5535 5532 5528 5526 5525 5525 5522 5518 5514 5512 5510 5508 5506 5504 5501 5499 5497 5495 5493 5491 5490 5488 5486 5485 5483 5481 5480 5478 5477 5475 5474 5472 5471 5470 5468 5467 5465 5464 5463 5461 5460 5458 5456 5455 5453 5452 5450 5449 5448 5447 5446 5445
5600 5599 5597 5596 5594 5592 5590 5589 5587 5585 5583 5581 5580 5577 5575 5573 5571 5569 5566 5564 5562 5559 5556 5554 5552 5550 5548 5545 5541 5540 5540 5540 5537 5533 5530 5527 5523 5520 5519 5519 5516 5513 5510 5507 5505 5502 5500 5498 5495 5493 5491 5489 5487 5485 5484 5482 5481 5479 5477 5476 5474 5473 5471 5470 5468 5467 5466 5464 5463 5461 5460 5459 5457 5455 5454 5452 5451 5449 5448 5446 5445 5444 5443 5442 5442 5441
5596 5595 5593 5591 5590 5588 5586 5584 5583 5581 5579 5577 5575 5573 5570 5568 5566 5564 5561 5559 5556 5554 5551 5548 5545 5543 5542 5540 5537 5534 5534 5533 5531 5528 5525 5522 5518 5515 5513 5513 5511 5508 5504 5502 5499 5497 5495 5492 5490 5487 5485 5483 5481 5480 5478 5477 5475 5474 5472 5471 5469 5468 5466 5465 5463 5462 5460 5459 5458 5456 5455 5453 5451 5450 5448 5447 5445 5444 5443 5442 5441 5440 5439 5439 5438 5437
5592 5591 5590 5588 5586 5584 5582 5580 5578 5576 5574 5572 5570 5567 5565 5562 5560 5558 5555 5553 5550 5548 5545 5543 5540 5538 5536 5534 5531 5529 5528 5527 5525 5523 5520 5517 5513 5510 5508 5507 5505 5503 5499 5496 5494 5492 5490 5487 5484 5482 5480 5478 5476 5475 5473 5472 5470 5469 5467 5466 5464 5463 5461 5460 5458 5457 5455 5454 5452 5451 5450 5448 5446 5445 5444 5442 5441 5440 5439 5438 5437 5436 5436 5435 5435 5434
5588 5587 5585 5584 5581 5579 5577 5575 5573 5571 5569 5567 5564 5562 5560 5557 5555 5552 5550 5548 5545 5542 5540 5537 5535 5532 5530 5529 5526 5523 5522 5521 5520 5518 5515 5512 5508 5505 5503 5502 5500 5498 5495 5492 5489 5487 5485 5482 5480 5477 5475 5474 5472 5470 5469 5467 5465 5464 5462 5461 5459 5458 5456 5455 5453 5452 5450 5449 5447 5446 5445 5443 5442 5440 5439 5438 5437 5436 5435 5434 5434 5433 5432 5431 5431 5430
5584 5582 5580 5579 5577 5575 5572 5570 5568 5566 5564 5561 5559 5556 5554 5552 5549 5547 5544 5542 5540 5537 5535 5532 5529 5527 5525 5523 5520 5517 5516 5515 5514 5512 5510 5508 5504 5500 5497 5497 5496 5494 5490 5488 5485 5482 5480 5478 5475 5473 5471 5469 5467 5466 5464 5462 5461 5459 5457 5456 5454 5453 5451 5450 5448 5447 5445 5444 5442 5441 5440 5439 5437 5436 5435 5434 5433 5432 5431 5431 5430 5429 5428 5428 5427 5426
5580 5578 5576 5574 5572 5570 5568 5565 5563 5561 5559 5556 5554 5551 5549 5546 5544 5542 5539 5537 5535 5532 5530 5526 5524 5521 5519 5517 5515 5512 5510 5509 5508 5507 5505 5503 5500 5495 5493 5492 5491 5489 5486 5484 5481 5479 5476 5473 5471 5469 5467 5465 5463 5461 5460 5458 5456 5454 5452 5451 5449 5447 5446 5445 5443 5442 5440 5439 5438 5437 5435 5435 5434 5432 5431 5431 5430 5429 5428 5427 5426 5425 5425 5424 5423 5422
5575 5573 5571 5569 5567 5565 5563 5560 5558 5556 5554 5551 5549 5546 5544 5541 5539 5536 5534 5532 5530 5527 5524 5521 5518 5515 5513 5511 5509 5506 5504 5503 5503 5502 5500 5498 5495 5492 5489 5488 5487 5485 5482 5480 5477 5475 5472 5469 5467 5465 5463 5461 5460 5457 5455 5453 5451 5449 5447 5445 5444 5442 5441 5440 5438 5437 5436 5435 5434 5432 5431 5430 5430 5429 5428 5427 5426 5425 5424 5423 5422 5422 5421 5420 5419 5418
5571 5569 5567 5565 5562 5560 5558 5556 5554 5551 5549 5546 5544 5541 5539 5536 5534 5531 5529 5526 5524 5522 5519 5516 5513 5510 5507 5505 5503 5501 5499 5498 5497 5497 5495 5493 5490 5487 5484 5483 5482 5481 5478 5475 5473 5471 5469 5466 5463 5461 5459 5457 5455 5453 5451 5449 5446 5445 5443 5441 5439 5438 5436 5435 5434 5433 5431 5430 5429 5428 5427 5427 5426 5425 5424 5423 5422 5421 5420 5420 5419 5418 5417 5416 5415 5415
5567 5565 5562 5560 5558 5556 5553 5551 5549 5547 5544 5542 5539 5537 5534 5531 5529 5526 5524 5521 5519 5517 5514 5511 5508 5505 5503 5501 5499 5496 5494 5493 5492 5492 5491 5489 5486 5483 5480 5478 5478 5477 5474 5472 5470 5468 5465 5462 5460 5457 5455 5454 5451 5449 5447 5444 5442 5440 5438 5436 5435 5433 5432 5431 5430 5429 5427 5426 5425 5424 5424 5423 5422 5421 5420 5419 5418 5417 5416 5415 5415 5414 5413 5412 5411 5410
5563 5561 5558 5556 5554 5551 5549 5547 5545 5542 5540 5537 5535 5532 5530 5527 5524 5521 5519 5516 5515 5512 5510 5507 5504 5502 5499 5496 5494 5492 5490 5488 5487 5486 5485 5484 5482 5478 5475 5474 5473 5472 5470 5468 5466 5464 5462 5459 5456 5454 5452 5450 5448 5445 5443 5440 5438 5436 5434 5432 5430 5429 5428 5427 5425 5425 5424 5422 5421 5420 5420 5419 5418 5417 5416 5415 5414 5413 5412 5411 5410 5410 5409 5408 5407 5406
5559 5556 5554 5552 5550 5547 5545 5542 5540 5537 5535 5532 5530 5527 5525 5522 5520 5517 5514 5511 5510 5508 5505 5503 5500 5498 5495 5492 5490 5487 5485 5484 5483 5482 5480 5479 5477 5474 5471 5470 5468 5467 5466 5465 5463 5461 5459 5456 5453 5451 5449 5446 5444 5442 5439 5437 5434 5432 5430 5429 5427 5425 5424 5423 5422 5421 5420 5419 5418 5417 5416 5415 5414 5413 5412 5411 5410 5409 5408 5407 5406 5405 5405 5404 5403 5402
5555 5552 5550 5547 5545 5543 5540 5538 5535 5533 5530 5528 5525 5522 5520 5518 5515 5513 5510 5507 5505 5503 5500 5498 5496 5494 5492 5489 5486 5483 5481 5480 5479 5477 5476 5475 5472 5470 5468 5466 5464 5462 5462 5460 5459 5458 5456 5453 5450 5448 5445 5443 5441 5438 5435 5433 5431 5429 5427 5425 5424 5422 5421 5420 5418 5417 5416 5415 5414 5413 5412 5411 5410 5409 5408 5407 5406 5405 5404 5403 5402 5401 5400 5400 5399 5399
5550 5548 5545 5543 5540 5538 5535 5533 5530 5528 5525 5523 5520 5518 5515 5513 5511 5509 5506 5504 5501 5500 5497 5494 5492 5490 5488 5485 5482 5479 5476 5475 5474 5474 5472 5470 5468 5465 5464 5462 5460 5458 5457 5456 5455 5454 5453 5451 5448 5445 5442 5440 5437 5435 5432 5430 5428 5426 5424 5423 5421 5419 5418 5416 5415 5414 5413 5412 5411 5410 5409 5408 5406 5405 5405 5404 5402 5401 5400 5399 5398 5397 5396 5396 5395 5395
5545 5543 5540 5538 5535 5533 5531 5528 5526 5523 5521 5519 5516 5514 5511 5509 5507 5505 5502 5500 5498 5495 5493 5490 5488 5485 5483 5481 5479 5476 5472 5470 5469 5469 5468 5467 5464 5462 5460 5458 5456 5454 5453 5452 5451 5450 5449 5448 5446 5443 5440 5437 5434 5431 5429 5426 5424 5423 5421 5420 5418 5416 5415 5413 5412 5411 5410 5409 5408 5406 5405 5404 5403 5402 5401 5400 5399 5397 5396 5395 5394 5393 5392 5392 5391 5390
5541 5538 5536 5534 5531 5529 5526 5524 5521 5519 5517 5515 5512 5510 5508 5505 5503 5501 5498 5496 5494 5491 5489 5486 5484 5481 5479 5477 5475 5472 5469 5467 5465 5464 5464 5462 5460 5458 5456 5455 5452 5450 5449 5448 5447 5446 5445 5444 5443 5441 5438 5435 5431 5428 5425 5423 5421 5419 5418 5417 5415 5414 5412 5411 5409 5408 5407 5406 5405 5403 5402 5400 5400 5398 5397 5396 5395 5394 5393 5391 5390 5389 5388 5388 5387 5387
5536 5534 5532 5529 5527 5525 5522 5520 5518 5515 5513 5511 5508 5506 5504 5501 5499 5497 5494 5492 5490 5487 5485 5483 5480 5477 5475 5473 5471 5468 5466 5463 5461 5460 5459 5458 5456 5454 5452 5450 5449 5447 5445 5444 5443 5442 5441 5440 5438 5437 5435 5433 5429 5426 5422 5420 5418 5416 5415 5414 5412 5411 5410 5408 5407 5405 5404 5403 5401 5400 5399 5397 5396 5395 5394 5392 5391 5390 5389 5388 5386 5385 5384 5384 5383 5383
5532 5530 5528 5525 5523 5521 5518 5516 5514 5511 5509 5507 5505 5502 5500 5497 5495 5493 5490 5488 5485 5483 5481 5479 5477 5474 5472 5469 5467 5464 5462 5460 5458 5456 5455 5454 5452 5450 5449 5447 5445 5443 5442 5440 5440 5438 5437 5435 5434 5433 5431 5429 5426 5423 5420 5417 5415 5413 5412 5410 5409 5408 5407 5405 5404 5403 5401 5400 5399 5397 5396 5395 5393 5392 5390 5389 5388 5386 5385 5384 5383 5381 5380 5380 5379 5379
5528 5526 5524 5521 5519 5517 5515 5512 5510 5508 5505 5503 5501 5498 5496 5494 5491 5489 5486 5484 5482 5480 5477 5475 5473 5471 5469 5466 5464 5461 5459 5456 5454 5453 5451 5450 5448 5447 5445 5444 5442 5440 5439 5437 5436 5435 5433 5432 5430 5428 5426 5425 5423 5420 5417 5415 5412 5410 5409 5407 5406 5405 5404 5402 5401 5400 5399 5397 5396 5395 5393 5391 5390 5389 5387 5386 5384 5383 5381 5380 5379 5378 5376 5376 5375 5374
5524 5522 5520 5518 5515 5513 5510 5508 5506 5504 5501 5499 5497 5495 5492 5490 5488 5485 5483 5481 5478 5476 5474 5471 5469 5467 5465 5463 5461 5458 5455 5453 5450 5449 5447 5446 5445 5443 5441 5440 5438 5437 5435 5434 5433 5431 5430 5428 5426 5425 5422 5420 5419 5417 5415 5412 5410 5408 5406 5405 5403 5402 5400 5399 5398 5397 5396 5395 5393 5392 5390 5389 5387 5385 5384 5382 5381 5379 5378 5376 5375 5374 5373 5372 5371 5370
5520 5518 5516 5514 5511 5509 5507 5504 5502 5500 5498 5495 5493 5491 5489 5486 5484 5482 5480 5477 5475 5473 5471 5468 5466 5464 5461 5459 5457 5455 5452 5450 5447 5445 5444 5442 5440 5439 5438 5436 5435 5433 5432 5430 5429 5427 5426 5424 5422 5420 5419 5416 5415 5413 5411 5410 5407 5405 5404 5402 5400 5399 5397 5396 5395 5394 5392 5391 5390 5389 5387 5385 5384 5382 5380 5379 5377 5375 5374 5372 5371 5370 5369 5368 5367 5366
5516 5514 5511 5509 5507 5505 5503 5501 5499 5496 5495 5492 5490 5488 5485 5483 5481 5479 5476 5474 5472 5470 5468 5465 5463 5460 5458 5456 5453 5451 5449 5447 5444 5442 5440 5438 5437 5435 5434 5433 5431 5430 5428 5427 5425 5423 5422 5420 5418 5416 5415 5413 5411 5410 5408 5406 5405 5403 5401 5400 5398 5396 5395 5393 5392 5390 5389 5388 5387 5385 5384 5382 5380 5379 5377 5375 5374 5372 5370 5369 5367 5366 5365 5364 5363 5363
5512 5510 5508 5506 5504 5501 5500 5497 5495 5493 5491 5489 5487 5485 5482 5480 5478 5476 5474 5471 5469 5467 5465 5462 5460 5457 5455 5452 5450 5448 5445 5443 5441 5439 5437 5435 5433 5432 5430 5429 5428 5426 5425 5423 5421 5420 5418 5416 5414 5412 5410 5409 5407 5406 5405 5403 5401 5400 5399 5398 5396 5394 5392 5390 5389 5387 5386 5385 5384 5382 5380 5379 5377 5375 5373 5371 5370 5368 5367 5365 5364 5362 5361 5360 5360 5359
5508 5506 5504 5502 5500 5498 5496 5494 5492 5490 5488 5485 5484 5481 5480 5477 5475 5473 5470 5468 5466 5464 5461 5459 5457 5454 5452 5449 5447 5445 5442 5440 5438 5436 5434 5431 5430 5428 5427 5426 5424 5423 5421 5420 5418 5416 5414 5412 5410 5409 5407 5405 5404 5402 5401 5400 5398 5397 5396 5395 5394 5392 5390 5388 5386 5384 5383 5382 5380 5379 5377 5375 5373 5372 5370 5368 5366 5365 5363 5362 5360 5359 5358 5357 5356 5356
5505 5503 5501 5499 5497 5495 5493 5491 5489 5487 5485 5483 5480 5478 5476 5474 5472 5470 5467 5465 5463 5460 5458 5456 5454 5451 5449 5446 5444 5441 5439 5437 5435 5433 5430 5429 5427 5425 5424 5422 5421 5420 5418 5416 5415 5413 5411 5409 5407 5405 5404 5402 5400 5399 5398 5396 5395 5394 5392 5391 5390 5389 5388 5385 5383 5381 5380 5379 5377 5375 5374 5372 5370 5369 5367 5365 5363 5361 5360 5358 5357 5356 5355 5354 5353 5353
5501 5500 5498 5496 5494 5492 5490 5488 5486 5484 5482 5480 5478 5475 5473 5471 5469 5467 5465 5462 5460 5457 5455 5453 5451 5448 5446 5443 5440 5438 5436 5434 5432 5430 5427 5425 5424 5422 5420 5419 5418 5416 5415 5413 5412 5410 5408 5406 5404 5402 5400 5399 5397 5396 5395 5394 5392 5391 5390 5388 5387 5386 5385 5383 5381 5379 5377 5376 5374 5372 5371 5369 5368 5366 5364 5362 5360 5358 5357 5355 5354 5353 5352 5351 5350 5350
5498 5496 5495 5493 5490 5489 5487 5485 5483 5481 5479 5477 5475 5472 5470 5468 5466 5464 5461 5459 5457 5454 5452 5450 5448 5445 5443 5440 5438 5435 5433 5431 5429 5426 5425 5422 5421 5419 5418 5416 5415 5413 5412 5410 5409 5407 5405 5404 5401 5400 5398 5396 5395 5393 5392 5390 5390 5388 5387 5385 5384 5383 5382 5381 5379 5377 5375 5373 5371 5370 5368 5366 5365 5363 5361 5360 5358 5355 5354 5352 5351 5350 5349 5348 5347 5346
5495 5493 5491 5490 5488 5485 5484 5482 5480 5478 5476 5474 5472 5470 5467 5465 5463 5460 5458 5456 5453 5451 5449 5446 5444 5442 5440 5438 5435 5433 5430 5428 5425 5423 5421 5420 5418 5416 5415 5413 5411 5410 5409 5407 5406 5404 5402 5401 5399 5397 5395 5393 5392 5390 5389 5388 5386 5385 5384 5383 5381 5380 5379 5377 5376 5375 5373 5371 5369 5367 5365 5364 5362 5360 5359 5357 5355 5353 5351 5350 5348 5347 5346 5345 5344 5343
5492 5490 5488 5486 5485 5483 5481 5479 5477 5475 5473 5471 5469 5466 5464 5462 5459 5457 5455 5452 5450 5448 5445 5443 5441 5439 5436 5435 5432 5430 5428 5425 5423 5420 5418 5416 5415 5413 5411 5410 5408 5407 5405 5404 5402 5401 5399 5397 5396 5394 5392 5390 5389 5387 5386 5385 5384 5383 5382 5380 5379 5377 5376 5375 5373 5371 5370 5369 5367 5365 5363 5361 5360 5358 5356 5355 5353 5350 5349 5347 5345 5344 5343 5342 5341 5340
5489 5487 5485 5484 5482 5480 5478 5476 5474 5472 5470 5468 5465 5463 5461 5458 5456 5454 5451 5449 5447 5444 5442 5440 5438 5435 5433 5431 5429 5427 5425 5423 5420 5418 5416 5414 5412 5410 5409 5407 5405 5404 5402 5401 5399 5398 5396 5395 5393 5391 5389 5388 5386 5385 5383 5382 5380 5380 5379 5378 5376 5375 5374 5372 5370 5369 5367 5366 5364 5362 5360 5359 5357 5356 5354 5353 5350 5348 5346 5345 5343 5342 5341 5340 5339 5338
5486 5485 5483 5481 5479 5477 5475 5473 5471 5469 5467 5465 5462 5460 5458 5455 5453 5450 5448 5446 5444 5441 5439 5436 5435 5432 5430 5428 5426 5424 5422 5420 5418 5416 5413 5411 5409 5407 5406 5404 5402 5401 5399 5398 5396 5395 5393 5391 5390 5388 5386 5385 5383 5382 5381 5380 5378 5376 5375 5375 5374 5372 5371 5370 5368 5366 5364 5363 5361 5360 5358 5356 5355 5354 5352 5350 5348 5346 5344 5342 5340 5339 5338 5337 5336 5335
5483 5482 5480 5478 5476 5474 5472 5470 5468 5466 5464 5462 5459 5457 5455 5452 5450 5447 5445 5442 5440 5438 5436 5433 5431 5429 5427 5425 5423 5421 5419 5417 5415 5413 5411 5409 5407 5405 5403 5401 5400 5398 5396 5395 5393 5392 5390 5389 5387 5385 5383 5381 5380 5379 5378 5377 5375 5374 5373 5372 5370 5370 5368 5367 5365 5364 5362 5360 5359 5357 5355 5354 5352 5351 5350 5348 5346 5344 5342 5340 5338 5336 5335 5334 5334 5333
5480 5479 5477 5475 5473 5471 5470 5467 5465 5463 5461 5459 5456 5454 5451 5449 5447 5444 5442 5439 5437 5435 5432 5430 5428 5426 5424 5421 5420 5418 5416 5414 5412 5410 5408 5406 5404 5402 5400 5399 5397 5395 5394 5392 5391 5389 5388 5386 5385 5383 5380 5378 5376 5375 5375 5374 5373 5371 5370 5369 5368 5366 5365 5365 5363 5361 5360 5358 5356 5355 5353 5351 5350 5349 5347 5346 5344 5342 5340 5338 5335 5334 5332 5331 5331 5330
5478 5476 5474 5472 5470 5469 5467 5465 5462 5460 5458 5456 5454 5451 5448 5446 5443 5441 5439 5436 5434 5431 5429 5427 5425 5423 5420 5418 5416 5415 5413 5411 5409 5407 5405 5403 5402 5400 5398 5396 5395 5393 5391 5390 5388 5387 5385 5384 5383 5381 5379 5375 5373 5372 5371 5371 5370 5369 5368 5366 5365 5364 5363 5362 5360 5359 5357 5356 5354 5353 5351 5349 5347 5346 5345 5344 5342 5340 5338 5336 5334 5332 5330 5329 5328 5328
5475 5473 5471 5470 5468 5466 5464 5462 5460 5458 5455 5453 5450 5448 5445 5443 5440 5438 5435 5433 5431 5428 5426 5424 5422 5420 5417 5415 5413 5411 5410 5408 5406 5404 5402 5400 5399 5397 5395 5394 5392 5390 5389 5387 5385 5384 5383 5382 5381 5380 5378 5375 5371 5369 5368 5367 5366 5365 5364 5364 5362 5361 5360 5359 5358 5356 5355 5354 5352 5350 5349 5347 5345 5344 5342 5341 5340 5338 5337 5335 5332 5330 5328 5326 5326 5325